This demonstration page uses our WeatherBlox Daily Observations layout. Learn more.

Hourly Observations for October 25, 2015

Temp ( °F °C ) Dew Point ( °F °C ) Humidity (%) Winds ( mph kmh ) Pressure ( in mb ) Visibility ( mi km ) Precip ( " mm )
12:15 am 00:15 Clear 44 6.5 30 -0.9 60 60 SSE 6 9 30.27 1025 10 16.0934 0 0
12:35 am 00:35 Clear 43 6.1 30 -1 61 61 SSE 7 11 30.27 1025 10 16.0934 0 0
12:55 am 00:55 Clear 43 5.9 31 -0.7 63 63 SSE 7 11 30.27 1025 10 16.0934 0 0
1:15 am 01:15 Clear 42 5.8 31 -0.5 64 64 SSE 5 7 30.27 1025 10 16.0934 0 0
1:35 am 01:35 Clear 43 6.1 31 -0.6 63 63 SSE 8 13 30.27 1025 10 16.0934 0 0
1:55 am 01:55 Clear 42 5.5 31 -0.6 65 65 SSE 7 11 30.27 1025 10 16.0934 0 0
2:15 am 02:15 Clear 42 5.7 31 -0.7 64 64 S 7 11 30.27 1025 10 16.0934 0 0
2:35 am 02:35 Clear 41 5.2 31 -0.7 66 66 S 7 11 30.27 1025 10 16.0934 0 0
2:55 am 02:55 Clear 41 5.1 30 -1 65 65 S 6 9 30.27 1025 10 16.0934 0 0
3:15 am 03:15 Clear 41 4.9 30 -1 66 66 S 6 9 30.27 1025 10 16.0934 0 0
3:35 am 03:35 Clear 40 4.5 30 -1 68 68 S 7 11 30.3 1026 10 16.0934 0 0
3:55 am 03:55 Clear 39 4 30 -1 70 70 S 7 11 30.3 1026 10 16.0934 0 0
4:15 am 04:15 Clear 39 4.1 31 -0.8 71 71 S 6 9 30.33 1027 10 16.0934 0 0
4:35 am 04:35 Clear 39 3.8 30 -1 71 71 S 6 9 30.3 1026 10 16.0934 0 0
4:55 am 04:55 Clear 38 3.5 30 -0.9 73 73 S 6 9 30.33 1027 10 16.0934 0 0
5:15 am 05:15 Clear 38 3.6 31 -0.8 73 73 S 3 6 30.33 1027 10 16.0934 0 0
5:35 am 05:35 Clear 37 3 30 -1 75 75 S 6 9 30.33 1027 10 16.0934 0 0
5:55 am 05:55 Clear 37 3 30 -1 75 75 S 6 9 30.33 1027 10 16.0934 0 0
6:15 am 06:15 Clear 35 1.6 30 -1.3 81 81 SSE 6 9 30.33 1027 10 16.0934 0 0
6:35 am 06:35 Clear 35 1.5 30 -1.3 82 82 SSE 6 9 30.33 1027 10 16.0934 0 0
6:55 am 06:55 Clear 36 2 30 -1.1 80 80 S 6 9 30.33 1027 10 16.0934 0 0
7:15 am 07:15 Clear 34 1 30 -1.2 85 85 SSE 5 7 30.36 1028 10 16.0934 0 0
7:35 am 07:35 Clear 35 1.6 31 -0.8 84 84 SSE 6 9 30.33 1027 10 16.0934 0 0
7:55 am 07:55 Clear 35 1.4 31 -0.8 85 85 S 6 9 30.36 1028 10 16.0934 0 0
8:15 am 08:15 Sunny 35 1.9 31 -0.4 85 85 S 7 11 30.33 1027 10 16.0934 0 0
8:35 am 08:35 Sunny 36 2.2 32 -0.2 84 84 S 6 9 30.33 1027 10 16.0934 0 0
8:55 am 08:55 Sunny 40 4.5 34 1.3 80 80 SSW 5 7 30.3 1026 10 16.0934 0 0
9:15 am 09:15 Sunny 45 7.1 35 1.7 69 69 SSW 6 9 30.33 1027 10 16.0934 0 0
9:35 am 09:35 Sunny 47 8.5 36 2.3 65 65 SSW 8 13 30.3 1026 10 16.0934 0 0
9:55 am 09:55 Sunny 50 10.1 37 2.9 61 61 SSW 7 11 30.3 1026 10 16.0934 0 0
10:15 am 10:15 Sunny 53 11.7 37 3 55 55 SSW 8 13 30.27 1025 10 16.0934 0 0
10:35 am 10:35 Sunny 55 13 37 2.7 50 50 S 10 17 30.27 1025 10 16.0934 0 0
10:55 am 10:55 Sunny 57 13.9 36 2.3 46 46 S 10 17 30.27 1025 10 16.0934 0 0
11:15 am 11:15 Sunny 58 14.7 37 2.5 44 44 S 10 17 30.21 1023 10 16.0934 0 0
11:35 am 11:35 Sunny 60 15.7 35 1.5 38 38 S 15 24 30.21 1023 10 16.0934 0 0
11:55 am 11:55 Sunny 61 16.2 32 0.2 34 34 S 15 24 30.21 1023 10 16.0934 0 0
12:15 pm 12:15 Sunny 62 16.7 33 0.4 33 33 S 13 20 30.21 1023 10 16.0934 0 0
12:35 pm 12:35 Sunny 64 17.5 31 -0.6 29 29 S 17 28 30.21 1023 10 16.0934 0 0
12:55 pm 12:55 Sunny 64 18 30 -0.9 28 28 S 13 20 30.21 1023 10 16.0934 0 0
1:15 pm 13:15 Sunny 65 18.6 29 -1.5 26 26 S 13 20 30.15 1021 10 16.0934 0 0
1:35 pm 13:35 Sunny 66 18.7 29 -1.7 25 25 SSE 14 22 30.15 1021 10 16.0934 0 0
1:55 pm 13:55 Sunny 65 18.6 30 -1.3 26 26 S 14 22 30.12 1020 10 16.0934 0 0
2:15 pm 14:15 Sunny 66 19 31 -0.3 27 27 S 16 26 30.12 1020 10 16.0934 0 0
2:35 pm 14:35 Sunny 67 19.3 31 -0.6 26 26 S 14 22 30.12 1020 10 16.0934 0 0
2:55 pm 14:55 Sunny 67 19.3 32 -0.2 27 27 S 15 24 30.09 1019 10 16.0934 0 0
3:15 pm 15:15 Sunny 67 19.2 32 0 28 28 S 15 24 30.09 1019 10 16.0934 0 0
3:35 pm 15:35 Sunny 67 19.5 32 -0.1 27 27 S 14 22 30.09 1019 10 16.0934 0 0
3:55 pm 15:55 Sunny 67 19.3 32 -0.1 27 27 S 14 22 30.09 1019 10 16.0934 0 0
4:15 pm 16:15 Sunny 67 19.3 32 0.1 28 28 S 16 26 30.09 1019 10 16.0934 0 0
4:35 pm 16:35 Sunny 67 19.3 32 0 27 27 S 14 22 30.09 1019 10 16.0934 0 0
4:55 pm 16:55 Sunny 67 19.3 31 -0.4 27 27 S 14 22 30.09 1019 10 16.0934 0 0
5:15 pm 17:15 Sunny 66 18.7 31 -0.4 28 28 S 15 24 30.09 1019 10 16.0934 0 0
5:35 pm 17:35 Sunny 65 18.6 32 0 29 29 S 12 19 30.09 1019 10 16.0934 0 0
5:55 pm 17:55 Sunny 65 18.1 32 0.1 30 30 S 12 19 30.09 1019 10 16.0934 0 0
6:15 pm 18:15 Sunny 64 17.5 33 0.3 31 31 S 12 19 30.09 1019 10 16.0934 0 0
6:35 pm 18:35 Sunny 61 16.2 33 0.3 34 34 S 8 13 30.12 1020 10 16.0934 0 0
6:55 pm 18:55 Clear 59 15.2 33 0.4 37 37 S 10 17 30.12 1020 10 16.0934 0 0
7:15 pm 19:15 Clear 55 12.9 34 1 44 44 SSE 8 13 30.15 1021 10 16.0934 0 0
7:35 pm 19:35 Clear 53 11.5 34 1 49 49 SSE 8 13 30.15 1021 10 16.0934 0 0
7:55 pm 19:55 Clear 52 11.1 34 1.2 51 51 SSE 9 15 30.15 1021 10 16.0934 0 0
8:15 pm 20:15 Clear 51 10.4 34 1.2 53 53 SSE 8 13 30.18 1022 10 16.0934 0 0
8:35 pm 20:35 Clear 50 10 35 1.4 55 55 SSE 8 13 30.18 1022 10 16.0934 0 0
8:55 pm 20:55 Clear 48 9.1 34 1.2 58 58 SSE 9 15 30.18 1022 10 16.0934 0 0
9:15 pm 21:15 Clear 48 8.8 34 1.2 59 59 SSE 8 13 30.18 1022 10 16.0934 0 0
9:35 pm 21:35 Clear 47 8.6 34 1.2 60 60 S 8 13 30.18 1022 10 16.0934 0 0
9:55 pm 21:55 Clear 46 7.6 34 1.1 64 64 SSE 7 11 30.18 1022 10 16.0934 0 0
10:15 pm 22:15 Clear 46 7.9 34 1.1 62 62 S 6 9 30.18 1022 10 16.0934 0 0
10:35 pm 22:35 Clear 46 7.7 34 1 63 63 S 7 11 30.21 1023 10 16.0934 0 0
10:55 pm 22:55 Clear 46 7.7 34 1 63 63 SSE 6 9 30.21 1023 10 16.0934 0 0
11:15 pm 23:15 Clear 46 7.9 33 0.8 61 61 S 8 13 30.21 1023 10 16.0934 0 0
11:35 pm 23:35 Clear 47 8.4 33 0.8 59 59 S 10 17 30.18 1022 10 16.0934 0 0
11:55 pm 23:55 Clear 47 8.1 33 0.7 60 60 S 8 13 30.18 1022 10 16.0934 0 0

Powered by AerisWeather